Location: Unspecified
(17.6330°N, 0.0000°E)
Time: 10:00:18
(UTC+00:00)

A-11 Canister half - Pass Details

Date: 19 June 2019
Orbit: 1515 x 1685 km, 47.2° (Epoch: 15 July)

Event Time Altitude Azimuth Distance (km) Brightness Sun altitude
Rises 12:34:30 0° 285° (WNW) 4,879 11.8 80.3°
Reaches altitude 10° 12:40:09 10° 310° (NW) 3,856 11.4 79.2°
Maximum altitude 12:44:34 14° 337° (NNW) 3,541 11.3 78.3°
Drops below altitude 10° 12:48:55 10° 5° (N) 3,793 11.3 77.5°
Sets 12:54:25 0° 30° (NNE) 4,738 11.6 76.3°
